Date String (YYYY-MM-DD hh:mm:ss) UTC,Instrument flags,Ambient pressure (hPa),Sample flow (lpm),Bypass flow (lpm),Sample temperature (°C),Ambient temperature (°C),ASC tube jacket temperature (°C),LED temperature (°C),Box temperature (°C),Sample RH (%),Span deviation,Mass concentration (μg/m³),Mass concentration (μg/m³),Mass concentration (μg/m³)
DateTimeUTC,F1_M11,P_M11,Q1_M11,Q2_M11,T1_M11,T2_M11,T3_M11,T4_M11,T5_M11,U1_M11,ZSPAN_M11,X0_M11,X2_M11,X1_M11
2021-12-27 08:00:00,,0815.9,5.00,0.00,22.1,22.1,00.0,31.0,23.8,10.9,0000.0,0001.87,0000.58,0000.30
2021-12-27 08:01:00,,0815.9,5.00,0.00,22.1,21.9,00.0,31.0,23.7,10.8,0000.0,0001.83,0000.57,0000.30
2021-12-27 08:02:00,,0815.9,4.99,0.00,22.0,21.7,00.0,31.0,23.6,10.8,0000.0,0001.64,0000.55,0000.30
2021-12-27 08:03:00,,0815.9,5.01,0.00,22.0,21.6,00.0,31.0,23.6,10.9,0000.0,0001.69,0000.56,0000.29
2021-12-27 08:04:00,,0815.9,5.01,0.00,22.0,21.5,00.0,31.0,23.5,10.8,0000.0,0001.24,0000.53,0000.29
2021-12-27 08:05:00,,0816.0,4.99,0.00,22.0,21.4,00.0,31.0,23.5,10.8,0000.0,0001.40,0000.54,0000.28
2021-12-27 08:06:00,,0816.0,5.02,0.00,21.9,21.3,00.0,31.0,23.5,10.9,0000.0,0001.40,0000.53,0000.28
2021-12-27 08:07:00,,0816.0,4.99,0.00,21.9,21.2,00.0,31.0,23.4,10.9,0000.0,0001.30,0000.51,0000.28
2021-12-27 08:08:00,,0816.0,5.01,0.00,21.9,21.1,00.0,30.9,23.4,10.9,0000.0,0001.25,0000.48,0000.27
2021-12-27 08:09:00,,0816.1,5.00,0.00,21.8,21.1,00.0,30.9,23.4,10.9,0000.0,0001.21,0000.46,0000.27
2021-12-27 08:10:00,,0816.0,5.00,0.00,21.8,21.1,00.0,30.9,23.4,10.9,0000.0,0001.24,0000.47,0000.27
2021-12-27 08:11:00,,0816.0,5.00,0.00,21.8,21.0,00.0,30.9,23.3,10.9,0000.0,0001.20,0000.46,0000.27
2021-12-27 08:12:00,,0816.1,5.01,0.00,21.8,21.0,00.0,30.9,23.3,10.9,0000.0,0001.38,0000.48,0000.27
2021-12-27 08:13:00,,0816.1,5.01,0.00,21.8,21.3,00.0,30.9,23.4,10.9,0000.0,0002.13,0000.49,0000.27
2021-12-27 08:14:00,,0816.1,4.99,0.00,21.9,22.2,00.0,30.9,23.7,10.8,0000.0,0002.07,0000.50,0000.27
2021-12-27 08:15:00,,0816.1,5.00,0.00,22.1,23.0,00.0,31.0,24.0,10.7,0000.0,0002.11,0000.51,0000.26
2021-12-27 08:16:00,,0816.0,4.99,0.00,22.2,22.9,00.0,31.0,24.1,10.7,0000.0,0001.95,0000.50,0000.26
2021-12-27 08:17:00,,0816.0,5.00,0.00,22.2,22.6,00.0,31.0,24.0,10.7,0000.0,0001.93,0000.54,0000.25
2021-12-27 08:18:00,,0816.0,5.00,0.00,22.2,22.4,00.0,31.0,23.9,10.6,0000.0,0001.99,0000.57,0000.25
2021-12-27 08:19:00,,0816.0,5.00,0.00,22.2,22.1,00.0,31.0,23.9,10.6,0000.0,0002.04,0000.58,0000.25
2021-12-27 08:20:00,,0816.0,5.01,0.00,22.1,21.9,00.0,31.0,23.8,10.7,0000.0,0002.00,0000.58,0000.25
2021-12-27 08:21:00,,0816.0,4.99,0.00,22.1,21.8,00.0,31.1,23.7,10.7,0000.0,0001.92,0000.56,0000.25
2021-12-27 08:22:00,,0816.0,5.01,0.00,22.1,21.6,00.0,31.1,23.7,10.7,0000.0,0001.98,0000.58,0000.25
2021-12-27 08:23:00,,0816.0,5.00,0.00,22.0,21.5,00.0,31.1,23.6,10.7,0000.0,0001.76,0000.56,0000.24
2021-12-27 08:24:00,,0816.1,5.00,0.00,22.0,21.4,00.0,31.0,23.7,10.7,0000.0,0001.08,0000.55,0000.25
2021-12-27 08:25:00,,0816.0,5.01,0.00,22.0,21.4,00.0,31.0,23.6,10.7,0000.0,0001.10,0000.53,0000.24
2021-12-27 08:26:00,,0816.1,5.00,0.00,22.0,21.3,00.0,31.0,23.6,10.7,0000.0,0001.05,0000.51,0000.24
2021-12-27 08:27:00,,0816.1,5.01,0.00,22.0,21.3,00.0,31.0,23.6,10.8,0000.0,0001.08,0000.52,0000.25
2021-12-27 08:28:00,,0816.1,5.01,0.00,21.9,21.2,00.0,31.0,23.4,10.5,0000.0,0001.02,0000.50,0000.26
2021-12-27 08:29:00,,0816.2,5.00,0.00,21.8,21.1,00.0,31.0,23.3,10.4,0000.0,0001.10,0000.55,0000.29
2021-12-27 08:30:00,,0816.2,5.00,0.00,21.8,21.0,00.0,31.0,23.3,10.3,0000.0,0001.39,0000.63,0000.33
2021-12-27 08:31:00,,0816.3,4.99,0.00,21.8,21.0,00.0,30.9,23.3,10.2,0000.0,0001.57,0000.69,0000.37
2021-12-27 08:32:00,,0816.3,5.01,0.00,21.8,21.2,00.0,30.9,23.3,10.2,0000.0,0001.82,0000.77,0000.40
2021-12-27 08:33:00,,0816.3,4.99,0.00,21.9,22.0,00.0,31.0,23.6,10.3,0000.0,0001.92,0000.81,0000.42
2021-12-27 08:34:00,,0816.3,5.01,0.00,22.0,22.8,00.0,31.0,23.9,10.5,0000.0,0001.93,0000.81,0000.43
2021-12-27 08:35:00,,0816.3,5.01,0.00,22.1,22.9,00.0,31.0,24.1,10.3,0000.0,0002.40,0000.86,0000.45
2021-12-27 08:36:00,,0816.3,4.99,0.00,22.2,22.7,00.0,31.0,24.0,10.2,0000.0,0003.67,0000.96,0000.48
2021-12-27 08:37:00,,0816.4,5.01,0.00,22.1,22.4,00.0,31.0,23.9,10.1,0000.0,0003.97,0001.06,0000.52
2021-12-27 08:38:00,,0816.3,4.99,0.00,22.1,22.2,00.0,31.0,23.8,10.1,0000.0,0004.11,0001.11,0000.55
2021-12-27 08:39:00,,0816.3,5.00,0.00,22.1,22.0,00.0,31.1,23.7,10.1,0000.0,0004.30,0001.15,0000.58
2021-12-27 08:40:00,,0816.3,5.01,0.00,22.1,21.9,00.0,31.0,23.7,10.1,0000.0,0004.35,0001.15,0000.58
2021-12-27 08:41:00,,0816.3,5.00,0.00,22.1,21.7,00.0,31.0,23.7,10.1,0000.0,0004.38,0001.19,0000.59
2021-12-27 08:42:00,,0816.5,5.00,0.00,22.0,21.6,00.0,31.0,23.6,10.1,0000.0,0004.44,0001.22,0000.59
2021-12-27 08:43:00,,0816.4,4.99,0.00,22.0,21.5,00.0,31.0,23.6,10.1,0000.0,0004.43,0001.24,0000.60
2021-12-27 08:44:00,,0816.4,5.01,0.00,22.0,21.4,00.0,31.0,23.5,10.1,0000.0,0004.38,0001.24,0000.62
2021-12-27 08:45:00,,0816.4,4.99,0.00,21.9,21.3,00.0,31.0,23.4,10.1,0000.0,0004.49,0001.29,0000.64
2021-12-27 08:46:00,,0816.3,5.01,0.00,21.9,21.3,00.0,31.0,23.4,10.1,0000.0,0004.20,0001.31,0000.67
2021-12-27 08:47:00,,0816.4,4.98,0.00,21.9,21.2,00.0,31.0,23.4,10.1,0000.0,0003.66,0001.35,0000.69
2021-12-27 08:48:00,,0816.4,5.01,0.00,21.9,21.2,00.0,31.0,23.5,10.0,0000.0,0003.68,0001.34,0000.69
2021-12-27 08:49:00,,0816.4,4.99,0.00,21.9,21.2,00.0,31.0,23.4,10.0,0000.0,0004.49,0001.37,0000.70
2021-12-27 08:50:00,,0816.5,5.01,0.00,21.8,21.2,00.0,31.0,23.4,10.0,0000.0,0004.66,0001.41,0000.70
2021-12-27 08:51:00,,0816.5,5.00,0.00,21.8,21.2,00.0,30.9,23.4,10.0,0000.0,0004.79,0001.47,0000.71
2021-12-27 08:52:00,,0816.4,4.98,0.00,21.8,21.2,00.0,30.9,23.4,10.0,0000.0,0004.66,0001.42,0000.71
2021-12-27 08:53:00,,0816.5,5.00,0.00,21.9,21.8,00.0,30.9,23.6,10.0,0000.0,0004.75,0001.45,0000.71
2021-12-27 08:54:00,,0816.5,5.00,0.00,22.0,22.6,00.0,31.0,23.9,09.9,0000.0,0004.74,0001.43,0000.70
2021-12-27 08:55:00,,0816.5,5.00,0.00,22.2,22.9,00.0,31.0,24.1,09.8,0000.0,0004.73,0001.42,0000.69
2021-12-27 08:56:00,,0816.5,5.00,0.00,22.2,22.7,00.0,31.0,24.0,09.8,0000.0,0004.68,0001.40,0000.70
2021-12-27 08:57:00,,0816.7,5.00,0.00,22.2,22.4,00.0,31.1,23.9,09.8,0000.0,0004.74,0001.41,0000.69
2021-12-27 08:58:00,,0816.6,4.99,0.00,22.2,22.2,00.0,31.1,23.8,09.8,0000.0,0004.22,0001.39,0000.68
2021-12-27 08:59:00,,0817.0,5.01,0.00,22.1,22.0,00.0,31.1,23.7,09.8,0000.0,0004.75,0001.42,0000.68
